LiveATC.Net - Listen to live air traffic control over the Internet!


ICAO: U42  IATA: U42   Airport: South Valley Regional Airport
City: Salt Lake City   State/Province: Utah
Country: United States   Continent: North America
KSLC METAR Weather: KSLC 251754Z 31008G15KT 10SM FEW080 SCT230 19/00 A3016 RMK AO2 SLP182 T01940000 10194 20078 58003 $
U42 Flight Activity (FlightAware)

U42 CTAF
Feed Status: UP   Listeners: 0
Listen in your browser - HTML5 player (in browser, HTML5)
Click here to listen with your own player (launches your MP3 player)
Archive Access: U42 CTAF
FacilityFrequency
South Valley CTAF122.700

NOTICE

Unauthorized use prohibited. See LiveATC.net Terms of Service


Airport/ARTCC Code
Frequency Search
(e.g., 124.400, 128.75)
Site-wide search
 


Browse Feeds
Top 50 Feeds
Coverage Map
Bad Weather Areas

LiveATC FAQ
Offer LiveATC feed
Contact LiveATC.net
Press Inquiries

LiveATC on iPhone
LiveATC on Android

Windows Phone
Windows 8/10

LiveATC Mobile
(Mobile browser)

ATC Audio Archives
Interesting Recordings

LiveATC Forums


Home Page
About LiveATC.net
Make a Donation
Terms of Use
Privacy Policy

Canadian Air Freqs

AIRMETs/SIGMETs

FAA Airport Status
Nat'l Airspace Status
Arrival Demand Charts


Server Software By:
Icecast.org
Liquidsoap